Temp
86 88 88 82 72 71 62 64 68 72 73 78 83 78 77 75 73 69 81 84 85 86 87 85 82 83 83 83 83 83 83 83 83 83 82 82 84 84 84 84 84 84 84 84 84 84 84 84 83
89 85 85 78 67 62 62 69 69 74 78 81 82 79 77 74 77 74 79 83 86 87 89 84 82 83 83 83 83 83 84 83 83 83 82 82 82 84 84 84 84 84 84 84 83 83 84 84 83
86 86 80 71 67 62 64 69 72 77 81 79 78 82 78 75 76 79 84 84 86 84 88 86 83 83 83 83 83 83 83 83 83 83 83 84 82 83 84 84 84 84 83 84 84 84 84 83 83
87 85 80 69 65 68 70 74 77 76 80 82 80 75 80 82 79 83 85 85 86 86 88 84 83 84 84 84 83 83 84 83 83 83 83 83 82 81 84 84 84 84 84 83 84 84 83 84 83
88 82 71 67 67 70 74 76 76 74 77 79 80 73 74 80 83 84 84 86 86 88 88 88 83 84 84 83 84 84 83 83 83 83 83 83 81 80 78 83 84 84 84 83 83 83 83 83 82
80 78 69 65 68 72 75 79 79 77 79 78 76 76 76 82 82 83 86 86 88 86 87 88 84 83 83 84 84 84 84 83 83 83 83 82 81 80 80 82 84 84 84 83 82 83 83 83 83
77 74 68 67 68 71 75 81 78 78 78 78 82 75 74 78 83 84 85 87 86 87 86 87 88 86 84 84 84 83 83 82 82 83 83 80 80 81 82 83 82 83 83 83 83 83 83 83 83
81 78 69 70 67 69 77 80 82 80 77 86 85 76 75 80 82 84 85 85 84 84 85 84 85 87 87 87 84 84 84 83 83 83 82 81 81 82 83 83 83 84 84 84 84 83 82 83 83
82 73 67 70 69 72 79 78 81 84 80 80 81 81 83 82 83 82 80 79 80 81 83 84 84 84 85 85 85 83 82 83 83 83 83 82 85 85 86 83 82 84 84 84 84 84 83 83 83
80 72 71 77 77 75 78 79 79 79 77 77 78 80 82 81 81 80 80 79 80 80 83 85 85 83 85 86 84 85 83 86 83 82 82 80 82 84 85 84 82 83 83 84 84 84 84 84 90
78 73 77 78 80 80 78 78 81 78 75 80 78 77 79 80 80 81 82 82 81 82 82 84 82 82 82 84 84 84 85 85 84 82 80 80 80 83 84 85 84 85 82 88 86 86 87 87 87
76 78 79 79 80 79 77 80 78 79 80 84 85 82 80 79 80 82 82 82 82 82 82 83 82 81 81 83 84 84 84 85 84 83 81 80 81 81 80 82 83 83 85 84 84 81 85 84 85
80 79 80 80 80 80 79 77 77 77 82 84 83 81 80 81 82 83 84 85 83 81 83 83 82 80 81 80 82 83 84 82 84 82 81 82 82 78 80 80 82 83 84 81 84 82 83 81 85
80 78 80 80 79 79 76 76 77 80 84 81 80 80 82 81 82 82 82 82 81 82 84 85 82 81 81 78 80 81 83 82 82 83 83 76 80 81 82 79 75 77 84 85 84 83 82 84 84
80 76 79 78 78 77 78 73 73 81 81 79 80 81 82 82 83 82 83 83 84 84 85 84 83 82 80 80 79 80 82 83 84 83 82 75 76 80 78 80 77 76 83 82 83 81 81 83 84
76 75 69 78 76 77 78 71 78 80 78 78 79 80 80 82 83 84 85 85 86 86 83 84 86 83 81 80 79 78 81 82 84 84 84 78 80 79 77 82 77 78 83 84 83 81 83 84 84
74 68 70 73 77 76 75 73 80 79 78 78 78 80 81 82 83 85 86 86 86 85 84 83 84 84 82 81 78 77 78 79 83 84 83 81 81 77 80 82 82 81 84 84 83 80 83 82 83
67 69 71 70 77 76 74 73 80 78 76 77 78 80 80 82 83 86 85 87 88 86 84 83 84 82 80 81 80 75 76 78 82 83 83 82 80 81 81 76 78 82 84 84 82 80 81 84 84
72 71 69 76 80 74 74 74 79 81 76 76 77 78 80 82 87 88 86 86 86 85 83 82 80 79 80 79 77 75 74 77 81 82 81 82 81 80 81 80 75 75 81 83 79 82 79 82 82
72 71 72 76 78 75 74 74 79 80 78 79 79 79 80 83 84 84 86 85 85 83 82 81 80 78 79 80 78 78 78 80 81 82 81 82 81 80 81 80 79 80 83 81 81 80 80 82 82
75 71 72 71 76 76 72 73 75 79 76 79 81 82 83 82 83 84 83 83 84 82 81 80 80 78 79 79 79 78 77 77 78 79 80 82 81 82 77 80 78 78 81 84 81 81 80 79 80
72 77 75 73 72 67 73 65 76 75 75 76 80 80 82 82 84 86 85 83 84 83 83 81 80 78 78 78 78 76 78 78 80 80 81 82 81 81 81 81 77 79 74 80 83 83 82 80 79
75 77 74 73 71 69 70 67 76 73 78 82 83 79 82 84 85 85 84 84 85 84 83 82 79 78 78 77 78 78 77 81 82 81 79 80 80 81 82 80 76 81 77 79 81 81 80 78 80
80 76 74 69 68 64 68 69 72 76 79 80 81 79 80 84 85 87 86 84 83 84 81 78 78 77 78 77 77 77 77 78 79 79 80 82 83 83 81 82 80 78 81 81 83 82 81 80 81
76 73 64 62 63 62 67 66 73 82 85 82 80 82 80 83 84 84 83 81 80 81 81 80 75 76 77 77 77 77 78 78 78 79 82 81 83 83 82 81 81 82 81 82 84 82 82 82 83
73 74 65 54 58 64 66 65 75 85 85 84 81 82 82 82 84 83 83 82 81 82 82 82 75 77 77 77 77 77 78 81 82 81 83 84 84 85 84 83 83 83 82 83 83 86 87 84 85
72 68 74 65 62 61 69 72 81 84 85 84 82 81 80 81 84 83 84 84 82 82 82 82 78 78 77 78 77 77 78 79 81 80 81 83 82 85 84 84 83 83 83 83 84 87 84 85 85
76 78 67 67 57 55 65 64 71 77 79 82 83 83 83 82 82 84 83 82 83 84 84 82 79 78 78 79 78 78 78 79 80 79 79 80 82 82 83 84 84 84 84 84 82 84 85 83 86
71 71 68 70 67 61 59 67 78 77 77 77 82 82 83 85 82 83 83 82 82 84 84 84 79 78 79 79 78 78 79 80 80 81 80 81 81 81 82 83 84 84 84 84 83 82 84 82 82
76 72 72 66 62 63 63 67 81 79 79 79 80 80 82 83 84 84 83 82 81 81 82 82 80 80 79 79 78 78 79 80 81 81 82 82 81 81 82 83 83 83 83 83 82 82 86 83 83
MSLP
1009.44 1009.46 1009.52 1009.43 1009.81 1009.64 1010.34 1010.89 1010.94 1010.17 1010.16 1010.25 1010.06 1010.28 1010.62 1011.13 1011.36 1012.48 1012.89 1013.27 1013.51 1013.93 1014.57 1015.03 1015.26 1015.54 1015.77 1015.85 1016.02 1016.20 1016.32 1016.56 1016.60 1016.97 1017.08 1017.38 1017.64 1017.83 1018.00 1018.13 1018.22 1018.41 1018.60 1018.76 1018.98 1019.00 1019.14 1019.27 1019.38
1009.24 1009.41 1009.31 1009.11 1009.55 1009.78 1010.56 1010.67 1010.32 1010.07 1010.15 1010.24 1010.20 1010.43 1010.66 1011.10 1011.97 1012.72 1013.06 1013.51 1013.51 1013.80 1014.35 1015.10 1015.26 1015.51 1015.75 1016.06 1016.09 1016.33 1016.45 1016.62 1016.93 1017.04 1017.28 1017.74 1017.92 1018.03 1018.27 1018.35 1018.45 1018.63 1018.82 1018.91 1019.14 1019.12 1019.21 1019.30 1019.46
1009.27 1009.20 1009.00 1009.23 1009.82 1009.98 1010.24 1010.47 1010.31 1010.14 1010.14 1010.08 1010.12 1010.48 1010.90 1011.53 1012.30 1012.52 1012.94 1013.46 1013.74 1014.23 1014.43 1015.02 1015.27 1015.42 1015.79 1016.02 1016.24 1016.40 1016.67 1016.88 1017.00 1017.25 1017.41 1017.75 1018.04 1018.14 1018.31 1018.49 1018.52 1018.71 1018.99 1019.02 1019.21 1019.24 1019.19 1019.38 1019.51
1008.91 1008.95 1009.35 1009.47 1009.78 1010.11 1010.08 1010.16 1010.08 1010.03 1009.95 1010.15 1010.27 1010.69 1011.48 1011.96 1012.25 1012.68 1013.17 1013.58 1013.93 1014.24 1014.57 1015.11 1015.32 1015.59 1015.82 1016.09 1016.37 1016.61 1016.66 1016.98 1017.13 1017.46 1017.54 1017.89 1018.18 1018.44 1018.31 1018.41 1018.50 1018.71 1018.97 1019.18 1019.24 1019.36 1019.38 1019.44 1019.57
1008.83 1008.87 1009.13 1009.50 1009.83 1009.94 1009.98 1009.92 1009.91 1009.82 1009.78 1009.89 1010.22 1010.84 1011.67 1012.33 1012.71 1013.03 1013.35 1013.68 1013.89 1014.16 1014.57 1014.98 1015.38 1015.59 1015.93 1016.23 1016.40 1016.62 1016.81 1017.26 1017.37 1017.46 1017.57 1017.74 1018.19 1018.44 1018.50 1018.36 1018.52 1018.67 1018.87 1019.03 1019.24 1019.43 1019.42 1019.56 1019.71
1008.68 1009.28 1009.35 1009.56 1009.75 1009.86 1009.65 1009.62 1009.65 1009.72 1009.76 1010.09 1010.38 1010.86 1011.84 1012.58 1012.83 1013.16 1013.46 1013.67 1013.91 1014.32 1014.58 1014.96 1015.48 1015.68 1015.94 1016.23 1016.39 1016.59 1016.87 1017.19 1017.32 1017.46 1017.51 1017.78 1018.17 1018.51 1018.67 1018.62 1018.55 1018.61 1018.84 1019.00 1019.23 1019.45 1019.49 1019.62 1019.72
1008.76 1009.27 1009.65 1009.84 1009.74 1009.50 1009.30 1009.43 1009.43 1009.45 1009.59 1009.70 1010.19 1010.74 1012.19 1012.61 1012.89 1013.33 1013.65 1013.99 1014.28 1014.43 1014.74 1014.96 1015.24 1015.74 1015.95 1016.26 1016.43 1016.70 1016.98 1017.31 1017.34 1017.56 1017.66 1017.90 1018.20 1018.40 1018.43 1018.48 1018.64 1018.70 1018.73 1019.02 1019.11 1019.35 1019.64 1019.68 1019.76
1009.19 1009.42 1009.65 1009.79 1009.63 1009.36 1009.16 1009.23 1009.26 1009.27 1009.47 1009.72 1010.01 1010.35 1011.25 1012.15 1012.93 1013.45 1013.87 1014.29 1014.60 1014.82 1014.95 1015.20 1015.36 1015.58 1015.78 1016.10 1016.49 1016.72 1016.95 1017.17 1017.47 1017.51 1017.77 1017.97 1018.21 1018.33 1018.33 1018.39 1018.50 1018.54 1018.74 1018.91 1019.03 1019.27 1019.60 1019.65 1019.72
1009.42 1009.44 1009.42 1009.39 1009.35 1009.13 1009.08 1009.00 1009.39 1009.48 1009.52 1009.92 1010.14 1010.42 1010.86 1011.88 1012.76 1013.37 1013.91 1014.52 1014.85 1015.11 1015.17 1015.27 1015.44 1015.72 1015.96 1016.13 1016.34 1016.72 1017.09 1017.20 1017.38 1017.51 1017.67 1017.93 1018.02 1018.06 1018.09 1018.32 1018.42 1018.50 1018.65 1018.83 1019.02 1019.22 1019.30 1019.46 1019.56
1009.09 1009.29 1009.17 1009.25 1009.22 1009.08 1009.07 1009.01 1009.16 1009.37 1009.58 1009.84 1010.25 1010.91 1011.36 1012.08 1012.62 1012.94 1013.42 1013.88 1014.33 1014.72 1015.02 1015.24 1015.35 1015.72 1015.97 1016.10 1016.43 1016.75 1016.98 1017.01 1017.45 1017.57 1017.78 1018.02 1018.18 1018.11 1018.07 1018.18 1018.37 1018.48 1018.65 1018.72 1018.95 1019.06 1019.09 1019.23 1019.09
1009.09 1009.00 1009.15 1009.06 1009.07 1009.07 1009.09 1009.14 1009.18 1009.08 1009.22 1009.24 1009.66 1010.71 1011.46 1011.99 1012.53 1012.81 1013.19 1013.41 1013.69 1014.33 1014.89 1015.24 1015.52 1015.75 1015.99 1016.07 1016.41 1016.73 1016.90 1017.15 1017.43 1017.66 1017.94 1018.05 1018.21 1018.18 1018.16 1018.18 1018.23 1018.36 1018.54 1018.43 1018.73 1018.90 1018.90 1018.88 1019.03
1008.87 1009.00 1009.04 1009.03 1009.05 1009.02 1008.97 1009.13 1009.08 1009.00 1008.90 1009.10 1009.50 1010.40 1011.20 1011.64 1012.09 1012.49 1012.88 1013.27 1013.78 1014.09 1014.50 1015.05 1015.30 1015.71 1015.99 1016.06 1016.38 1016.62 1016.73 1016.96 1017.24 1017.50 1017.84 1017.99 1018.07 1018.27 1018.29 1018.21 1018.16 1018.27 1018.44 1018.54 1018.71 1019.12 1018.97 1018.90 1018.95
1008.66 1008.83 1008.98 1009.07 1009.05 1008.96 1009.05 1008.98 1009.10 1008.81 1009.05 1009.38 1009.83 1010.61 1011.11 1011.46 1011.80 1012.24 1012.63 1013.12 1013.56 1013.87 1014.13 1014.62 1015.16 1015.54 1015.73 1016.02 1016.26 1016.47 1016.55 1016.94 1017.10 1017.53 1017.71 1017.83 1017.92 1018.30 1018.27 1018.18 1018.17 1018.23 1018.36 1018.54 1018.59 1018.83 1018.87 1019.02 1018.92
1008.94 1008.87 1008.74 1008.84 1008.89 1008.92 1008.94 1009.01 1009.15 1008.59 1008.90 1009.49 1009.90 1010.36 1010.80 1011.20 1011.58 1012.09 1012.56 1012.91 1013.26 1013.61 1013.81 1014.24 1014.74 1015.12 1015.48 1015.80 1016.11 1016.47 1016.64 1016.91 1017.17 1017.28 1017.44 1017.95 1018.03 1018.04 1018.03 1018.12 1018.38 1018.53 1018.21 1018.30 1018.43 1018.56 1018.75 1018.62 1018.83
1008.95 1008.67 1008.53 1008.63 1008.76 1008.73 1008.83 1008.57 1008.35 1008.46 1008.82 1009.22 1009.61 1010.04 1010.46 1010.79 1011.32 1011.44 1011.85 1012.38 1012.79 1013.23 1013.64 1013.99 1014.36 1014.72 1015.30 1015.49 1015.75 1016.33 1016.48 1016.74 1016.78 1017.07 1017.36 1017.90 1018.08 1017.88 1018.13 1018.04 1018.09 1018.29 1018.17 1018.30 1018.38 1018.67 1018.89 1018.75 1018.81
1008.95 1009.06 1008.81 1008.63 1008.84 1008.75 1008.80 1007.76 1007.64 1008.15 1008.62 1008.84 1009.31 1009.71 1010.17 1010.40 1010.63 1011.12 1011.49 1011.87 1012.32 1012.85 1013.36 1013.75 1014.01 1014.55 1015.01 1015.29 1015.50 1016.19 1016.28 1016.41 1016.56 1016.78 1017.12 1017.69 1017.76 1017.87 1018.10 1017.76 1018.00 1018.08 1018.06 1018.06 1018.16 1018.63 1018.71 1018.82 1018.75
1009.27 1009.06 1008.89 1008.59 1008.70 1008.79 1008.72 1007.42 1007.25 1008.02 1008.32 1008.72 1008.97 1009.14 1009.53 1009.94 1010.19 1010.56 1010.99 1011.45 1011.79 1012.25 1012.97 1013.39 1013.86 1014.23 1014.70 1015.08 1015.34 1016.06 1016.23 1016.23 1016.39 1016.63 1016.95 1017.34 1017.58 1017.87 1017.88 1017.76 1017.79 1017.85 1017.69 1017.85 1018.13 1018.60 1018.59 1018.60 1018.57
1009.46 1009.21 1008.84 1008.68 1008.38 1008.33 1008.13 1007.09 1006.93 1007.59 1007.97 1008.16 1008.56 1008.69 1008.78 1009.05 1009.19 1009.78 1010.44 1010.93 1011.40 1011.90 1012.56 1013.19 1013.63 1014.16 1014.64 1015.03 1015.47 1016.05 1016.20 1016.06 1016.13 1016.43 1016.75 1017.19 1017.47 1017.72 1017.75 1018.12 1018.14 1017.87 1017.66 1017.83 1018.14 1018.37 1018.56 1018.48 1018.45
1009.91 1009.38 1008.90 1007.90 1007.94 1007.83 1007.14 1006.70 1005.70 1006.53 1007.11 1007.36 1007.52 1007.86 1007.99 1007.96 1008.26 1009.14 1009.85 1010.56 1011.06 1011.67 1012.23 1012.91 1013.55 1014.16 1014.56 1014.96 1015.35 1015.71 1015.93 1016.13 1016.12 1016.32 1016.77 1017.02 1017.38 1017.66 1017.73 1017.97 1018.39 1018.43 1018.10 1017.96 1018.24 1018.22 1018.41 1018.49 1018.67
1009.61 1009.06 1008.43 1007.68 1007.54 1007.60 1006.68 1005.96 1005.29 1005.45 1005.57 1005.87 1006.24 1006.70 1007.05 1007.40 1007.93 1008.58 1009.08 1009.92 1010.59 1011.18 1011.89 1012.65 1013.30 1014.00 1014.38 1014.72 1015.19 1015.37 1015.53 1015.78 1015.91 1016.22 1016.59 1016.85 1017.16 1017.48 1017.71 1017.91 1018.24 1018.15 1018.09 1018.10 1018.13 1018.15 1018.20 1018.37 1018.64
1008.87 1008.65 1008.23 1008.03 1007.21 1006.81 1006.70 1005.33 1004.71 1004.66 1005.03 1005.30 1005.44 1005.67 1005.92 1006.41 1007.00 1007.75 1008.60 1009.17 1010.01 1010.74 1011.42 1012.18 1012.99 1013.64 1014.17 1014.66 1015.11 1015.37 1015.67 1015.91 1016.08 1016.28 1016.45 1016.56 1016.98 1017.17 1017.68 1017.78 1018.13 1018.18 1018.24 1017.96 1018.13 1018.19 1018.24 1018.10 1018.73
1008.03 1008.01 1008.10 1007.77 1007.40 1006.69 1006.74 1005.03 1003.96 1004.13 1004.21 1004.16 1004.29 1004.68 1004.95 1005.65 1006.48 1007.03 1007.81 1008.68 1009.20 1010.09 1011.02 1011.86 1012.60 1013.21 1013.93 1014.56 1014.80 1015.00 1015.07 1015.17 1015.52 1015.94 1016.22 1016.40 1016.77 1017.10 1017.31 1017.50 1017.90 1017.79 1018.22 1018.19 1018.03 1018.21 1018.27 1018.29 1018.30
1007.69 1007.94 1007.83 1007.54 1007.27 1007.10 1006.35 1005.78 1003.58 1003.74 1003.00 1002.80 1003.02 1003.74 1004.23 1004.85 1005.50 1006.33 1007.16 1007.88 1008.84 1009.96 1010.61 1011.36 1012.31 1012.90 1013.49 1014.12 1014.51 1014.83 1014.88 1014.98 1015.38 1015.79 1016.10 1016.41 1016.71 1016.97 1017.09 1017.40 1017.77 1017.72 1018.04 1018.01 1017.93 1018.14 1018.23 1018.35 1018.28
1007.69 1007.49 1007.39 1007.63 1007.39 1006.51 1005.94 1005.35 1003.01 1002.77 1002.61 1002.35 1002.84 1003.25 1003.95 1004.43 1005.18 1005.96 1006.90 1008.08 1008.98 1009.77 1010.47 1010.89 1011.54 1012.35 1013.14 1013.63 1014.30 1014.69 1014.73 1014.92 1015.19 1015.51 1015.75 1016.04 1016.35 1016.63 1016.92 1017.15 1017.39 1017.70 1017.68 1017.70 1017.67 1017.73 1017.99 1018.20 1018.29
1007.36 1007.25 1006.83 1006.78 1006.66 1006.02 1006.11 1005.39 1003.16 1002.16 1002.17 1002.53 1002.57 1002.78 1003.43 1004.10 1004.88 1005.71 1006.56 1007.71 1008.75 1009.32 1009.84 1010.41 1011.12 1011.89 1012.67 1013.15 1013.89 1014.38 1014.58 1014.85 1015.04 1015.26 1015.49 1015.76 1015.96 1016.29 1016.63 1016.99 1017.27 1017.38 1017.43 1017.42 1017.29 1017.47 1017.80 1018.02 1018.11
1006.82 1006.94 1006.75 1006.44 1006.40 1005.75 1005.80 1004.29 1002.30 1001.78 1002.21 1002.35 1002.60 1002.76 1003.28 1003.74 1004.17 1005.01 1005.98 1006.98 1007.92 1008.62 1009.19 1009.92 1010.91 1011.53 1012.39 1012.74 1013.45 1014.05 1014.40 1014.67 1014.90 1015.18 1015.32 1015.52 1015.68 1015.88 1016.29 1016.58 1016.77 1017.04 1017.19 1017.20 1017.20 1017.24 1017.33 1017.72 1017.83
1006.64 1006.91 1006.88 1006.60 1007.26 1006.32 1004.85 1003.83 1002.45 1001.81 1001.94 1002.14 1002.40 1002.66 1003.22 1003.79 1004.09 1004.58 1005.54 1006.40 1007.28 1008.01 1008.58 1009.37 1010.49 1011.31 1011.97 1012.45 1013.18 1013.74 1014.13 1014.54 1014.65 1015.02 1015.33 1015.50 1015.78 1015.80 1016.08 1016.22 1016.59 1016.72 1016.91 1017.01 1017.03 1017.04 1017.30 1017.47 1017.57
1006.40 1006.60 1006.88 1006.66 1006.08 1005.43 1004.53 1003.81 1002.52 1001.97 1001.88 1002.04 1002.27 1002.51 1002.70 1003.42 1004.10 1004.62 1005.30 1005.91 1006.58 1007.39 1008.14 1009.05 1009.92 1010.55 1011.29 1012.09 1012.79 1013.24 1013.83 1014.29 1014.59 1014.88 1015.07 1015.33 1015.58 1015.75 1015.82 1016.06 1016.27 1016.47 1016.65 1016.73 1016.98 1016.96 1017.14 1017.39 1017.37
1006.78 1006.58 1006.85 1006.54 1006.20 1005.19 1004.37 1003.04 1002.72 1002.51 1002.62 1002.62 1002.46 1002.57 1002.55 1002.87 1003.57 1004.22 1004.90 1005.70 1006.42 1007.18 1007.79 1008.46 1009.54 1010.26 1010.90 1011.57 1012.24 1012.82 1013.41 1013.91 1014.35 1014.53 1014.86 1015.05 1015.39 1015.62 1015.70 1015.77 1015.92 1016.11 1016.31 1016.54 1016.70 1016.75 1016.88 1017.12 1017.27
1006.66 1006.46 1006.40 1006.13 1006.17 1005.86 1004.93 1003.02 1002.74 1002.88 1002.70 1003.01 1002.89 1002.99 1002.82 1002.79 1003.13 1003.81 1004.37 1005.17 1006.03 1006.70 1007.34 1007.90 1008.87 1009.65 1010.26 1010.99 1011.69 1012.31 1012.97 1013.51 1013.90 1014.22 1014.48 1014.84 1015.10 1015.42 1015.57 1015.66 1015.67 1015.78 1015.96 1016.19 1016.31 1016.33 1016.38 1016.73 1016.85
Wind_Speed
2 2 2 3 1 3 3 3 2 4 2 3 3 2 2 4 2 3 4 7 16 17 14 13 13 13 13 14 13 13 13 13 14 13 13 12 13 13 12 10 9 9 9 9 8 8 8 7 7
1 2 1 2 3 3 2 2 3 3 4 3 5 3 1 2 3 7 12 10 18 16 14 12 11 13 13 11 14 13 13 12 12 13 11 12 9 10 10 10 8 7 7 8 7 6 4 4 5
2 1 1 3 2 3 3 3 3 2 1 2 3 3 2 3 3 12 6 16 16 14 13 12 12 13 14 13 13 14 13 13 13 12 12 13 13 5 5 5 6 5 5 6 6 5 4 3 4
1 1 2 4 5 2 2 3 3 1 3 3 4 4 4 6 5 6 14 17 15 15 13 14 14 13 13 12 12 13 13 12 12 12 12 13 11 7 5 5 6 5 6 5 5 5 5 4 4
1 1 4 3 3 0 3 2 5 2 1 6 4 4 4 4 6 13 15 15 15 14 12 13 11 13 12 11 11 12 12 12 12 12 11 12 11 7 4 7 6 6 6 5 5 6 5 5 4
2 1 3 3 3 1 3 3 3 2 3 5 3 6 5 2 10 12 14 14 13 13 11 12 12 11 11 11 9 10 11 10 11 12 12 14 10 10 11 10 7 6 5 5 6 6 6 6 5
3 2 2 1 3 1 1 5 3 3 4 3 8 6 3 6 8 12 13 12 12 11 10 10 11 10 11 11 10 11 11 11 11 12 13 15 13 9 10 7 6 5 5 6 5 5 4 5 3
2 1 1 2 1 1 2 5 3 2 4 7 4 3 4 10 13 12 12 11 11 9 10 10 9 9 9 9 10 9 10 9 10 12 14 14 13 8 7 6 7 6 5 5 5 5 5 4 5
2 1 1 1 2 2 3 3 3 2 8 3 1 1 4 19 17 14 12 10 9 9 9 9 10 9 8 7 7 8 8 9 10 11 13 12 7 6 6 4 4 6 5 6 6 6 6 4 4
1 1 1 0 1 1 2 4 6 5 7 4 3 6 15 18 17 16 15 13 13 13 12 10 9 9 8 6 5 6 6 5 5 6 7 5 5 5 4 2 4 4 4 6 6 6 6 6 3
1 2 3 2 1 4 1 3 3 5 7 7 8 13 17 18 15 15 15 14 15 13 10 11 9 8 8 7 5 4 4 4 5 7 5 5 4 4 2 2 2 4 3 3 4 4 4 5 3
3 2 2 1 1 1 1 2 4 10 3 2 7 15 17 18 17 16 14 14 12 13 13 11 11 9 9 6 6 6 5 5 4 6 6 5 4 3 2 2 4 4 3 4 3 2 3 4 4
6 5 3 3 4 2 2 5 4 8 5 6 13 16 16 16 16 14 13 12 12 11 12 12 12 11 10 9 6 5 5 5 5 5 5 5 4 3 3 3 3 3 3 3 2 3 4 4 5
5 6 6 3 3 2 4 2 1 1 8 11 15 17 15 15 15 14 13 13 13 11 13 13 13 12 11 10 9 6 6 6 5 5 6 3 3 3 3 3 3 3 3 3 3 3 3 3 5
5 7 7 2 3 2 2 6 10 4 11 14 15 15 14 15 14 16 15 15 14 12 11 13 13 11 11 12 10 7 7 7 7 6 7 4 4 4 3 3 4 4 4 3 3 4 3 3 4
4 2 6 4 1 1 3 7 3 8 13 15 15 15 15 16 17 15 14 14 13 12 13 12 11 11 11 9 7 6 8 8 7 6 6 6 6 4 4 4 3 3 4 4 4 3 3 3 4
5 5 11 8 2 1 5 13 5 7 12 12 15 16 16 15 16 16 16 15 14 14 12 12 12 12 11 8 6 7 9 7 7 6 5 6 6 4 5 4 3 4 4 4 4 4 4 4 4
8 8 9 12 6 7 9 20 14 6 12 14 14 16 17 17 19 17 16 14 14 13 12 12 10 10 9 6 6 5 5 5 6 6 6 7 6 6 5 2 1 4 4 4 5 6 3 3 4
7 7 12 17 8 6 6 16 20 11 13 15 16 18 18 20 17 15 13 14 14 13 13 13 12 10 8 7 7 6 6 6 7 6 7 6 7 5 4 3 3 3 4 4 4 5 5 4 3
5 10 11 12 4 4 7 14 17 10 17 19 19 19 19 18 17 14 15 16 16 15 14 13 13 12 9 7 7 4 7 7 7 6 7 7 6 5 4 4 2 4 4 4 5 5 4 2 3
9 7 6 9 14 2 8 9 6 2 8 10 17 17 19 20 20 18 17 18 16 16 16 15 14 12 10 9 6 5 6 4 5 6 7 6 6 6 5 4 2 4 2 3 3 4 4 3 2
9 5 7 10 11 9 3 10 16 4 8 11 12 16 19 18 18 17 17 17 18 16 15 15 14 13 10 11 9 10 9 8 6 7 6 6 7 6 8 4 3 4 2 2 2 5 3 3 4
7 2 9 9 7 5 3 5 7 6 7 8 5 13 17 19 19 18 18 19 16 14 14 13 13 12 12 11 10 10 10 7 7 6 8 5 5 6 6 5 4 3 2 3 3 4 5 2 2
6 8 4 1 2 6 3 4 7 4 9 13 6 5 14 17 16 16 15 13 14 13 13 13 16 14 12 12 12 12 12 9 7 7 6 5 4 4 5 4 5 4 4 4 4 4 5 3 2
3 5 4 3 3 7 3 4 10 17 10 10 11 4 13 16 16 16 17 16 15 16 16 15 14 15 14 14 13 13 12 10 9 8 7 6 5 5 5 6 6 5 4 3 2 5 5 4 2
5 5 5 4 6 12 3 6 5 7 10 7 4 3 9 16 18 19 19 18 19 19 18 15 13 14 14 14 14 12 11 8 7 7 6 6 5 5 5 6 5 5 5 4 3 2 2 4 3
4 7 2 3 1 4 2 4 12 3 6 7 2 3 7 12 16 18 17 18 19 19 19 18 14 15 15 14 13 12 10 10 8 8 6 5 5 5 6 6 6 6 5 6 5 3 3 2 3
10 7 4 3 4 4 3 5 6 11 12 13 11 7 8 10 13 14 16 18 18 19 17 17 14 16 15 15 13 12 11 10 8 6 8 6 5 7 6 6 6 6 6 6 6 4 4 4 4
5 5 2 2 3 5 7 5 4 6 9 11 12 10 8 9 11 14 14 16 16 16 17 18 16 15 15 15 13 13 12 11 10 8 8 7 5 7 8 7 6 5 6 7 7 7 5 6 6
5 2 6 8 6 3 5 8 3 5 10 4 9 10 8 8 10 12 14 15 16 17 17 18 17 17 15 14 14 14 12 11 12 10 10 7 7 6 8 7 6 5 5 6 9 8 7 8 7
Wind_Direction
183 151 170 197 107 64 82 82 1 89 111 335 192 212 343 33 16 38 128 153 147 145 144 147 138 134 129 125 123 124 122 124 122 137 134 143 142 149 151 142 150 148 145 144 137 133 116 101 96
313 144 171 91 71 96 73 158 66 81 116 76 110 110 57 56 66 111 138 152 152 144 145 144 145 140 133 132 132 132 130 126 130 129 134 128 113 141 152 148 158 163 157 160 151 147 137 111 110
278 273 325 64 73 84 102 165 129 72 237 145 117 52 40 36 95 147 127 150 149 144 144 142 143 141 138 139 134 137 136 133 135 134 130 129 147 126 149 172 180 169 190 163 165 180 169 154 138
339 163 84 64 76 93 90 122 145 44 97 187 120 92 99 1 147 152 143 150 151 146 147 141 147 147 142 140 138 140 137 136 133 131 127 127 132 187 199 210 209 203 208 190 171 171 182 176 154
48 65 60 75 68 154 200 188 144 111 249 158 164 112 77 75 108 137 146 154 152 148 148 145 150 147 144 141 138 139 142 144 142 134 126 127 139 167 308 268 220 207 197 193 164 175 169 159 151
71 355 50 50 41 86 270 196 161 196 146 139 114 128 114 108 143 148 152 154 155 151 153 149 151 151 150 147 154 149 140 142 139 143 138 128 140 175 188 241 213 201 199 173 158 166 157 161 162
57 47 63 354 329 346 213 147 187 171 169 187 139 141 111 172 150 152 152 154 154 154 155 155 159 162 163 153 161 149 146 154 151 156 146 141 161 192 192 202 193 188 168 152 173 165 176 173 168
76 48 120 222 295 39 168 154 99 150 145 124 161 163 159 170 154 149 148 151 157 155 162 163 165 170 168 160 165 163 157 151 159 161 161 167 181 185 181 174 181 196 180 176 180 180 192 169 147
136 56 337 292 223 51 161 176 80 106 147 134 131 43 115 144 150 150 146 150 160 171 176 176 168 166 169 165 171 153 153 158 164 166 166 169 178 182 177 174 215 189 194 186 191 197 205 191 171
33 328 332 268 259 340 203 213 146 166 165 186 169 99 137 148 159 160 168 169 178 178 185 179 184 176 179 175 171 155 151 154 155 149 142 151 168 181 184 196 236 209 203 186 189 204 211 214 199
135 303 328 24 284 276 175 199 185 197 203 205 187 151 154 157 166 172 182 184 186 182 185 187 191 189 190 176 165 158 156 167 161 152 160 168 168 189 167 220 188 165 140 176 177 182 206 211 216
310 300 242 323 3 196 245 151 217 211 231 256 166 158 160 167 175 182 185 189 191 189 190 186 194 188 204 187 178 171 175 185 177 169 173 174 189 184 186 223 202 168 168 180 186 207 226 205 192
16 338 310 303 268 253 194 234 258 239 191 141 148 162 173 180 184 189 191 191 192 201 198 190 194 191 195 197 182 188 192 193 178 180 183 190 191 175 164 220 201 181 178 181 199 214 224 215 214
327 308 297 285 265 249 241 250 252 327 180 159 164 175 181 190 192 191 197 200 195 200 203 196 196 194 191 200 184 192 194 195 191 198 201 201 198 185 202 223 189 200 224 166 200 220 211 185 205
334 330 327 338 307 275 226 252 236 212 172 174 180 183 188 196 197 204 197 202 206 202 196 197 194 193 199 212 191 189 197 190 201 197 206 178 189 196 193 200 207 203 216 197 196 172 166 172 181
348 39 350 1 293 7 234 289 250 176 175 185 187 189 195 203 205 207 205 205 202 204 194 198 192 188 198 204 197 195 206 193 202 200 199 190 209 185 178 195 207 228 220 204 190 179 185 178 175
25 338 326 327 275 303 233 290 289 159 194 196 196 194 200 207 211 208 209 205 201 197 196 195 194 194 197 204 187 190 215 189 199 198 201 201 206 198 209 203 236 219 190 185 170 157 204 167 156
327 319 316 314 312 266 264 267 261 200 201 210 209 206 203 207 215 210 208 209 202 196 193 196 189 189 186 183 180 180 203 207 199 205 206 210 212 220 220 218 273 216 188 179 184 170 141 154 141
288 291 308 305 320 283 258 268 283 234 217 214 214 212 212 212 212 210 204 202 194 194 187 191 181 178 177 180 189 190 191 203 204 201 206 209 214 220 207 169 171 243 231 213 177 151 152 136 146
267 301 311 295 314 284 296 282 282 249 234 224 215 215 216 216 208 205 207 198 195 187 186 186 183 175 182 186 188 195 199 200 202 197 202 209 204 214 208 210 198 215 210 183 190 184 160 133 164
269 267 296 299 326 304 293 281 285 260 261 247 235 223 218 208 207 205 197 193 192 187 186 185 180 175 180 188 179 171 173 166 182 192 196 200 202 210 199 192 161 187 208 195 200 199 197 153 161
280 214 282 306 327 316 338 310 310 296 283 248 237 218 217 207 208 205 199 193 195 189 181 182 176 172 178 181 186 191 193 190 192 187 190 189 200 203 206 192 158 160 155 218 212 194 187 171 168
282 303 313 310 289 297 232 263 277 312 304 319 291 219 214 200 200 199 195 195 189 178 182 180 177 174 173 178 193 195 203 188 182 176 180 187 183 208 213 219 199 192 206 200 194 164 162 109 161
303 300 301 86 263 260 60 274 288 312 318 317 313 227 208 200 201 198 194 178 179 174 176 180 177 179 179 176 193 205 201 190 182 179 189 191 195 194 209 214 204 183 201 196 181 158 161 162 139
224 277 293 257 237 298 117 246 270 289 304 303 309 256 197 195 191 191 185 177 177 180 188 188 174 181 183 179 193 203 205 194 191 188 195 187 189 190 198 194 192 205 205 204 196 165 152 182 186
187 273 268 281 286 305 160 241 292 282 331 318 315 278 201 195 194 194 187 180 181 187 193 187 180 183 188 183 193 200 201 205 199 194 199 205 208 194 176 199 205 213 232 239 222 195 177 159 181
146 218 354 190 148 256 275 269 277 328 336 359 325 253 207 211 207 195 191 189 186 188 195 191 181 186 188 189 191 195 201 208 203 194 195 212 211 208 200 201 209 223 216 224 227 233 222 230 239
245 138 196 201 246 269 242 277 278 324 343 344 1 297 246 205 207 204 196 193 193 194 194 190 188 185 184 189 194 194 201 206 208 201 203 203 211 213 205 207 216 220 222 220 214 219 207 223 239
158 203 198 252 260 269 276 260 203 278 326 325 343 345 268 225 200 201 197 195 196 191 191 193 194 184 185 190 188 199 203 208 209 209 207 205 200 210 207 210 220 231 228 222 216 222 230 227 222
267 213 215 244 210 236 305 265 186 266 307 316 340 339 310 259 205 198 192 187 190 195 194 192 191 192 189 185 183 195 198 203 209 215 208 203 205 197 203 205 210 221 233 228 225 226 218 226 236